Flag for Canada Weather past 2 weeks in Delta, British Columbia, Canada

Now
50 °F

Drizzle. Fog.


Feels Like: 47 °F
Forecast: 48 / 66 °F
Wind: 8 mph from Northeast

Location: Vancouver International Air-Port

Current Time: Apr 27, 2015 at 4:32:06 AM

Latest Report: Apr 27, 2015 at 4:00 AM


Visibility: 5 mi

Pressure: 30.25 "Hg

Humidity: 94%

Dew point: 48 °F

Location of DeltaLocation

Historic Weather in Delta — Graph

°F

Delta temperature yesterday

Maximum temperature yesterday: 57 °F (at 4:00 PM)
Minimum temperature yesterday: 43 °F (at 3:00 AM)
Average temperature yesterday: 50 °F

Past Weeks' High & Low Weather Summary

 TemperatureHumidityPressure
High63 °F (Apr 20, 3:00 PM)94% (Apr 17, 6:00 AM)30.54 "Hg (Apr 17, 6:00 AM)
Low39 °F (Apr 15, 4:00 AM)31% (Apr 22, 4:00 PM)29.71 "Hg (Apr 24, 5:00 AM)
Average49 °F76%30.10 "Hg
* Reported Apr 12 3:00 AM — Apr 27 3:00 AM, Delta, Weather by CustomWeather, © 2015

Note: Actual official high and low records may vary slightly from our data, if they occured in-between our weather recording intervals... More about our weather records

Advertising

Delta weather history for previous 24 hours

 ConditionsComfort  
Time TempWeatherWind HumidityBarometerVisibility
3:00 AM
Mon, Apr 27
50 °FLight rain. Mostly cloudy.10 mph88%30.25 "Hg8 mi
2:51 AM50 °FLight rain. Mostly cloudy.10 mph88%30.25 "Hg15 mi
2:00 AM50 °FMostly cloudy.10 mph88%30.25 "Hg15 mi
1:00 AM50 °FMostly cloudy.13 mph88%30.24 "Hg15 mi
12:00 AM50 °FMostly cloudy.12 mph88%30.24 "Hg15 mi
11:00 PM
Sun, Apr 26
50 °FMostly cloudy.10 mph88%30.24 "Hg15 mi
10:00 PM52 °FMostly cloudy.10 mph77%30.24 "Hg15 mi
9:00 PM54 °FLight rain. Mostly cloudy.No wind67%30.23 "Hg20 mi
8:00 PM54 °FLight rain. Mostly cloudy.5 mph58%30.21 "Hg20 mi
7:00 PM55 °FPartly sunny.7 mph55%30.19 "Hg20 mi
6:00 PM55 °FPartly sunny.9 mph55%30.21 "Hg25 mi
5:00 PM57 °FMostly cloudy.13 mph48%30.21 "Hg25 mi
4:00 PM57 °FMostly cloudy.14 mph51%30.21 "Hg25 mi
3:00 PM55 °FMostly cloudy.14 mph55%30.22 "Hg25 mi
2:00 PM55 °FOvercast.15 mph47%30.21 "Hg25 mi
1:00 PM55 °FOvercast.13 mph59%30.21 "Hg25 mi
12:00 PM54 °FPartly sunny.9 mph58%30.21 "Hg25 mi
11:00 AM54 °FOvercast.12 mph58%30.20 "Hg25 mi
10:00 AM54 °FOvercast.9 mph63%30.19 "Hg25 mi
9:00 AM50 °FMostly cloudy.7 mph71%30.18 "Hg25 mi
8:00 AM46 °FPartly sunny.7 mph82%30.16 "Hg25 mi
7:00 AM45 °FMore clouds than sun.8 mph87%30.15 "Hg20 mi
6:00 AM43 °FPassing clouds.8 mph87%30.14 "Hg20 mi
5:00 AM43 °FPassing clouds.8 mph87%30.13 "Hg20 mi
4:00 AM45 °FPassing clouds.9 mph81%30.11 "Hg20 mi
Weather by CustomWeather, © 2015

See weather overviewHow to use our weather pages